Location: Berg
(48.4333°N, 13.9167°E)
Time: 08:48:59
(UTC+00:00)

Lacrosse 5 rocket - Pass Details

Date: 18 September 2020
Orbit: 460 x 636 km, 57.0° (Epoch: 24 October)

Event Time Altitude Azimuth Distance (km) Brightness Sun altitude
Rises 18:07:38 0° 260° (W) 2,731 6.2 -10.3°
Reaches altitude 10° 18:09:55 10° 268° (W) 1,869 5.4 -10.7°
Maximum altitude 18:13:57 40° 339° (NNW) 882 2.7 -11.3°
Drops below altitude 10° 18:18:11 10° 49° (NE) 1,969 3.8 -12.0°
Enters shadow 18:19:31 - 54° (NE) 2,467 4.3 -12.2°
